STARLINK-5636 (55454 NORAD) Tracking and Keplerian Element Data

This shows tracking and keplerian element data for the satellite.

Feedback or suggestion? Click here.




ElementValue
Catalog55454
NameSTARLINK-5636
Epoch Orbit830
Epoch Day85.25001157
Epoch Year2023
RAAN76.7615
Inclination43.0007
Eccentricity0.0001621
Argument of Perigee272.1198
Mean Anonmoly139.0148
Mean Motion15.48932934
Decay Rate-0.00050533
L11 55454U 23015F 23085.25001157 -.00050533 00000+0 -91290-3 0 9994
L22 55454 43.0007 76.7615 0001621 272.1198 139.0148 15.48932934 8306



Live tracking and technical data element details for STARLINK-5636 (NORAD 55454). STARLINK-5636 can be tracked NOW for your location showing map with azimuth and elevation plus other details from your city location.







IsCatalogInMostPopularTable: catalog: 55454, numindb: -1

Insert: records affected: 1


GetName: 55454 STARLINK-5636

Hit Count: inserted at: Tue, 28 Mar 2023 03:27:14 GMT